Terminal Aerodrome Forecast
Issued by NWS Wilmington, OH

Current Version | Previous Version | Text Only | Print | Product List | Glossary Off
Versions: 1 2 3 4 5 6 7 8 9 10 11 12 13 14 15 16 17 18

000
FTUS41 KILN 161003 AAA
TAFDAY
TAF AMD
KDAY 161003Z 1610/1706 00000KT P6SM BKN080
      TEMPO 1610/1613 4SM BR
     FM161300 00000KT P6SM SCT250
     FM161400 16007KT P6SM BKN040
     FM162100 17007KT P6SM VCSH BKN050
     FM170300 16005KT P6SM SCT050 BKN150=

USA.gov is the U.S. government's official web portal to all federal, state and local government web resources and services.